KI5RLR Weather Reports


time (UTC)temp
F
wind
direction
speed
knots
gust
knots
rain 1hr
in
rain 24hr
in
rain mn
in
humidity
%
barometer
mb
20240222113816 64 225 5.2 7.8 0.00 0.00 0.00 86 1006.4
20240222112816 64 225 6.1 9.6 0.00 0.00 0.00 86 1006.5
20240222111817 64 225 7.0 10.4 0.00 0.00 0.00 86 1006.5
20240222110816 64 225 5.2 7.8 0.00 0.00 0.00 86 1006.6
20240222105816 64 225 5.2 7.8 0.00 0.00 0.00 86 1006.5
20240222104818 64 225 5.2 7.8 0.00 0.00 0.00 85 1006.4
20240222103816 64 225 5.2 7.8 0.00 0.00 0.00 85 1006.5
20240222102816 64 203 4.3 6.1 0.00 0.00 0.00 85 1006.8
20240222101817 64 225 5.2 7.0 0.00 0.00 0.00 85 1006.8
20240222100816 64 180 5.2 6.1 0.00 0.00 0.00 85 1006.9
20240222095816 64 225 4.3 6.1 0.00 0.00 0.00 85 1006.9
20240222094816 64 203 4.3 6.1 0.00 0.00 0.00 85 1007.1
20240222093816 64 225 4.3 6.1 0.00 0.00 0.00 85 1007.0
20240222092818 64 203 5.2 7.8 0.00 0.00 0.00 85 1007.3
20240222091816 64 225 5.2 7.0 0.00 0.00 0.00 85 1007.3
20240222090816 65 203 4.3 6.1 0.00 0.00 0.00 84 1007.5
20240222085816 65 180 5.2 8.7 0.00 0.00 0.00 84 1007.8
20240222084816 65 180 3.5 5.2 0.00 0.00 0.00 84 1007.9
20240222083817 65 225 4.3 7.0 0.00 0.00 0.00 84 1008.1
20240222082816 65 203 4.3 7.0 0.00 0.00 0.00 83 1008.2
20240222081816 65 225 5.2 7.0 0.00 0.00 0.00 83 1008.2
20240222080816 66 203 6.1 8.7 0.00 0.00 0.00 83 1008.3
20240222075816 66 225 7.8 11.3 0.00 0.00 0.00 82 1008.5
20240222074836 66 225 6.1 8.7 0.00 0.00 0.00 82 1008.5
20240222073816 66 203 7.8 11.3 0.00 0.00 0.00 81 1008.6
20240222072816 66 225 7.8 12.2 0.00 0.00 0.00 81 1008.8
20240222071817 66 225 9.6 13.0 0.00 0.00 0.00 81 1008.7
20240222070818 66 225 10.4 16.5 0.00 0.00 0.00 81 1008.7
20240222065817 66 225 7.8 10.4 0.00 0.00 0.00 82 1008.6
20240222064816 66 225 8.7 12.2 0.00 0.00 0.00 82 1008.7
20240222063816 66 225 5.2 14.8 0.00 0.00 0.00 81 1008.7
20240222062818 66 225 8.7 10.4 0.00 0.00 0.00 81 1008.7
20240222061818 66 203 6.1 10.4 0.00 0.00 0.00 80 1008.7
20240222060816 66 203 9.6 13.9 0.00 0.00 0.00 80 1008.8
20240222055816 66 203 5.2 7.8 0.00 0.00 0.00 79 1008.8
20240222054816 66 225 7.0 13.0 0.00 0.00 0.00 79 1009.0
20240222053816 67 203 4.3 7.8 0.00 0.00 0.00 78 1008.9
20240222052817 67 203 5.2 7.0 0.00 0.00 0.00 78 1009.2
20240222051817 67 225 4.3 8.7 0.00 0.00 0.00 78 1009.3
20240222050816 67 203 6.1 10.4 0.00 0.00 0.00 77 1009.2
20240222045836 68 180 6.1 7.8 0.00 0.00 0.00 76 1009.2
20240222044817 68 180 7.0 10.4 0.00 0.00 0.00 76 1009.1
20240222043817 68 225 5.2 8.7 0.00 0.00 0.00 75 1009.1
20240222042816 69 225 9.6 13.9 0.00 0.00 0.00 75 1008.9
20240222041816 69 225 6.1 8.7 0.00 0.00 0.00 74 1008.8
20240222040817 69 203 5.2 8.7 0.00 0.00 0.00 73 1008.7
20240222035817 69 225 7.0 10.4 0.00 0.00 0.00 73 1008.8
20240222034816 69 180 9.6 13.9 0.00 0.00 0.00 73 1008.7
20240222033816 69 225 7.0 11.3 0.00 0.00 0.00 72 1008.7
20240222032836 70 203 7.0 10.4 0.00 0.00 0.00 72 1008.6
20240222031816 70 225 9.6 15.6 0.00 0.00 0.00 71 1008.6
20240222030819 70 203 6.1 13.0 0.00 0.00 0.00 71 1008.7
20240222025837 70 203 7.8 10.4 0.00 0.00 0.00 70 1008.7
20240222024816 70 203 6.1 9.6 0.00 0.00 0.00 70 1008.7
20240222023816 70 225 5.2 8.7 0.00 0.00 0.00 69 1008.8
20240222022816 71 225 5.2 7.0 0.00 0.00 0.00 69 1008.9
20240222021818 71 225 7.0 8.7 0.00 0.00 0.00 68 1008.9
20240222020817 71 225 5.2 8.7 0.00 0.00 0.00 68 1009.0
20240222015816 71 203 7.0 9.6 0.00 0.00 0.00 67 1008.9
20240222014817 72 203 7.8 10.4 0.00 0.00 0.00 67 1008.8
20240222013816 72 203 7.0 11.3 0.00 0.00 0.00 67 1008.5
20240222012816 72 203 7.0 11.3 0.00 0.00 0.00 66 1008.5
20240222011816 72 203 7.8 12.2 0.00 0.00 0.00 65 1008.2
20240222010816 72 203 6.1 9.6 0.00 0.00 0.00 64 1008.1
20240222005816 73 180 6.1 9.6 0.00 0.00 0.00 62 1008.2
20240222004816 73 203 9.6 14.8 0.00 0.00 0.00 61 1008.1
20240222003816 73 180 9.6 13.9 0.00 0.00 0.00 61 1008.4
20240222002818 73 203 6.1 8.7 0.00 0.00 0.00 60 1008.4
20240222001816 74 203 8.7 11.3 0.00 0.00 0.00 60 1008.6
20240222000836 74 158 8.7 17.4 0.00 0.00 0.00 60 1008.3
20240221235836 75 158 7.0 11.3 0.00 0.00 0.00 61 1008.2
20240221234818 75 203 7.0 13.0 0.00 0.00 0.00 61 1008.2
20240221233816 76 225 5.2 8.7 0.00 0.00 0.00 61 1008.8
20240221232816 77 225 7.0 9.6 0.00 0.00 0.00 59 1008.6
20240221231816 77 158 7.0 12.2 0.00 0.00 0.00 59 1008.4
20240221230816 78 158 7.0 10.4 0.00 0.00 0.00 58 1008.7
20240221225816 78 180 7.8 11.3 0.00 0.00 0.00 57 1008.9
20240221224816 79 180 7.8 13.0 0.00 0.00 0.00 56 1009.2
20240221223815 80 203 7.0 11.3 0.00 0.00 0.00 55 1009.5
20240221222815 81 180 6.1 8.7 0.00 0.00 0.00 53 1009.7
20240221221816 81 180 7.0 10.4 0.00 0.00 0.00 52 1009.8
20240221220836 81 180 8.7 12.2 0.00 0.00 0.00 50 1010.0
20240221215815 81 158 8.7 13.0 0.00 0.00 0.00 50 1010.1
20240221214815 81 225 8.7 13.9 0.00 0.00 0.00 49 1010.3
20240221213822 81 180 7.8 11.3 0.00 0.00 0.00 49 1010.5
20240221212820 81 203 7.8 11.3 0.00 0.00 0.00 49 1010.5
20240221211838 80 203 8.7 11.3 0.00 0.00 0.00 49 1010.9
20240221210838 80 225 7.0 11.3 0.00 0.00 0.00 50 1011.1
20240221205818 80 203 7.8 10.4 0.00 0.00 0.00 51 1011.2
20240221204817 79 225 9.6 13.0 0.00 0.00 0.00 51 1011.5
20240221203817 79 203 10.4 13.9 0.00 0.00 0.00 52 1011.9
20240221202817 79 225 8.7 10.4 0.00 0.00 0.00 53 1012.2
20240221201817 79 225 9.6 16.5 0.00 0.00 0.00 54 1012.4
20240221200817 78 225 8.7 11.3 0.00 0.00 0.00 54 1012.4
20240221195817 78 225 8.7 11.3 0.00 0.00 0.00 55 1012.9
20240221194820 78 180 5.2 8.7 0.00 0.00 0.00 57 1013.0
20240221193817 77 225 9.6 12.2 0.00 0.00 0.00 57 1013.1
20240221192818 77 180 8.7 10.4 0.00 0.00 0.00 58 1013.5
20240221191817 76 203 6.1 8.7 0.00 0.00 0.00 59 1013.7
20240221190837 76 203 9.6 13.0 0.00 0.00 0.00 59 1014.1
20240221185837 75 225 7.0 10.4 0.00 0.00 0.00 61 1014.5
20240221184817 75 225 7.8 13.0 0.00 0.00 0.00 62 1014.9
20240221183818 74 203 6.1 10.4 0.00 0.00 0.00 63 1015.2
20240221182837 74 203 7.8 10.4 0.00 0.00 0.00 64 1015.2
20240221181818 73 225 7.8 10.4 0.00 0.00 0.00 65 1015.5
20240221180817 73 225 10.4 13.9 0.00 0.00 0.00 66 1015.8
20240221175817 73 225 10.4 14.8 0.00 0.00 0.00 66 1016.3
20240221174818 72 248 7.0 9.6 0.00 0.00 0.00 67 1016.1
20240221173818 72 225 7.0 13.0 0.00 0.00 0.00 68 1016.2
20240221172817 71 225 7.8 11.3 0.00 0.00 0.00 70 1016.3
20240221171817 70 180 7.8 9.6 0.00 0.00 0.00 71 1016.3
20240221170837 70 158 10.4 18.2 0.00 0.00 0.00 72 1016.5
20240221165818 69 225 9.6 13.9 0.00 0.00 0.00 73 1016.5
20240221164817 68 225 7.8 9.6 0.00 0.00 0.00 74 1016.6
20240221163817 68 203 7.8 9.6 0.00 0.00 0.00 74 1016.7
20240221162820 67 203 8.7 11.3 0.00 0.00 0.00 76 1016.9
20240221161819 67 158 7.0 10.4 0.00 0.00 0.00 77 1016.9
20240221160817 66 225 7.0 11.3 0.00 0.00 0.00 78 1016.9
20240221155819 66 225 7.8 11.3 0.00 0.00 0.00 78 1017.1
20240221154838 66 203 8.7 12.2 0.00 0.00 0.00 79 1017.2
20240221153817 65 225 7.8 10.4 0.00 0.00 0.00 80 1017.1
20240221152816 65 203 7.8 9.6 0.00 0.00 0.00 82 1016.9
20240221151837 64 225 8.7 11.3 0.00 0.00 0.00 83 1016.9
20240221150817 63 225 7.8 12.2 0.00 0.00 0.00 84 1017.0
20240221145817 63 180 8.7 11.3 0.00 0.00 0.00 85 1016.8
20240221144817 62 225 6.1 8.7 0.00 0.00 0.00 86 1016.7
20240221143838 61 225 5.2 14.8 0.00 0.00 0.00 88 1016.6
20240221142817 61 225 7.8 11.3 0.00 0.00 0.00 88 1016.4
20240221141817 60 225 5.2 7.8 0.00 0.00 0.00 89 1016.2
20240221140816 60 203 6.1 7.8 0.00 0.00 0.00 90 1016.4
20240221135816 59 225 3.5 5.2 0.00 0.00 0.00 90 1016.4
20240221134837 59 225 5.2 7.0 0.00 0.00 0.00 90 1016.4
20240221133817 59 225 3.5 5.2 0.00 0.00 0.00 90 1016.4
20240221132817 59 225 5.2 8.7 0.00 0.00 0.00 90 1016.4
20240221131817 59 225 3.5 5.2 0.00 0.00 0.00 90 1016.4
20240221130816 59 225 5.2 7.0 0.00 0.00 0.00 89 1016.4
20240221125836 59 203 2.6 4.3 0.00 0.00 0.00 89 1016.3
20240221124817 59 203 4.3 7.0 0.00 0.00 0.00 89 1016.2
20240221123816 59 203 4.3 7.8 0.00 0.00 0.00 88 1016.0
20240221122816 59 225 3.5 4.3 0.00 0.00 0.00 88 1016.1
20240221121816 59 225 4.3 5.2 0.00 0.00 0.00 88 1016.1
20240221120816 59 225 4.3 6.1 0.00 0.00 0.00 87 1016.1
20240221115816 59 225 3.5 4.3 0.00 0.00 0.00 87 1015.9
20240221114816 59 225 2.6 3.5 0.00 0.00 0.00 86 1016.0